This is the latest recevied weather packets stored in our database for station/object OE6PLD-13. If no packets are shown the sender has not sent any weather packets the latest 1 day(s).
| Time | Temp. | Humidity | Pressure | Rain* | Wind** | Luminosity | Snow |
|---|---|---|---|---|---|---|---|
| 1778007712 | 16.67° C | 64% | 1012.8 hPa | 0.76 mm | 0.89 m/s, 259° | 0 W/m² | - |
| 1778007529 | 16.67° C | 64% | 1012.8 hPa | 0.76 mm | 0.89 m/s, 259° | 0 W/m² | - |
| 1778007345 | 16.67° C | 63% | 1012.8 hPa | 0.76 mm | 0 m/s | 0 W/m² | - |
| 1778007162 | 16.67° C | 63% | 1012.8 hPa | 0.76 mm | 1.34 m/s, 260° | 0 W/m² | - |
| 1778006978 | 16.67° C | 64% | 1012.8 hPa | 0.76 mm | 0.89 m/s, 261° | 0 W/m² | - |
| 1778006795 | 17.22° C | 63% | 1012.8 hPa | 0.76 mm | 0 m/s | 0 W/m² | - |
| 1778006612 | 17.22° C | 62% | 1012.7 hPa | 0.76 mm | 2.24 m/s, 263° | 0 W/m² | - |
| 1778006428 | 17.22° C | 62% | 1012.9 hPa | 0.76 mm | 0 m/s | 0 W/m² | - |
| 1778006245 | 17.22° C | 62% | 1013 hPa | 0.76 mm | 1.79 m/s, 263° | 0 W/m² | - |
| 1778006062 | 17.22° C | 62% | 1013 hPa | 0.76 mm | 1.34 m/s, 264° | 0 W/m² | - |
| 1778005878 | 17.22° C | 62% | 1012.8 hPa | 0.76 mm | 0.89 m/s, 265° | 0 W/m² | - |
| 1778005695 | 17.22° C | 61% | 1012.8 hPa | 0.76 mm | 3.13 m/s, 266° | 0 W/m² | - |
| 1778005512 | 17.22° C | 61% | 1012.6 hPa | 0.76 mm | 1.34 m/s, 266° | 0 W/m² | - |
| 1778005328 | 17.22° C | 61% | 1012.5 hPa | 0.76 mm | 0.45 m/s, 266° | 0 W/m² | - |
| 1778005145 | 17.78° C | 60% | 1012.7 hPa | 0.76 mm | 4.02 m/s, 266° | 0 W/m² | - |
| 1778004962 | 17.78° C | 60% | 1012.9 hPa | 0.76 mm | 0.45 m/s, 266° | 0 W/m² | - |
| 1778004778 | 17.78° C | 60% | 1012.8 hPa | 0.76 mm | 3.13 m/s, 266° | 0 W/m² | - |
| 1778004595 | 17.78° C | 60% | 1012.7 hPa | 0.76 mm | 0.89 m/s, 266° | 2 W/m² | - |
| 1778004412 | 17.78° C | 60% | 1012.7 hPa | 0.76 mm | 0.89 m/s, 266° | 3 W/m² | - |
| 1778004228 | 17.78° C | 59% | 1012.5 hPa | 0.76 mm | 1.34 m/s, 266° | 4 W/m² | - |
| 1778004045 | 18.33° C | 59% | 1012.6 hPa | 0.76 mm | 3.13 m/s, 266° | 5 W/m² | - |
| 1778003862 | 18.33° C | 59% | 1012.8 hPa | 0.76 mm | 0.89 m/s, 266° | 6 W/m² | - |
| 1778003678 | 18.33° C | 58% | 1012.7 hPa | 0.76 mm | 1.34 m/s, 266° | 9 W/m² | - |
| 1778003495 | 18.33° C | 58% | 1012.6 hPa | 0.76 mm | 0.45 m/s, 266° | 10 W/m² | - |
| 1778003312 | 18.89° C | 57% | 1012.7 hPa | 0.76 mm | 4.02 m/s, 266° | 12 W/m² | - |
* Rain latest hour (hover to see other rain measurements)
** Current wind speed in m/s (hover to see current wind gust speed)